カタログに戻る

IRIDE-MS2-HEO-10

運用中科学SSO
NORAD 68982·PAYLOAD·🇹🇼 Taiwan

打ち上げ May 3, 2026 から Vandenberg Space Force Base

Loading…

次のパス (今後24時間)

TLE

最新Source: Space-Track

元期: Sep 14, 2026, 15:59 UTC

1 68982U 26100C   26257.66644220  .00001218  00000-0  12758-3 0  9992
2 68982  97.7205 153.2474 0003324 200.9375 159.1709 14.91366404 20034

AllMySatでIRIDE-MS2-HEO-10をリアルタイム追跡

Download on the App Store